This is the latest recevied weather packets stored in our database for station/object DB7GV-8. If no packets are shown the sender has not sent any weather packets the latest 10 day(s).
| Time | Temp. | Humidity | Pressure | Rain* | Wind** | Luminosity | Snow |
|---|---|---|---|---|---|---|---|
| 1777921363 | 16.11° C | 59% | 1013.7 hPa | - | - | - | - |
| 1777920457 | 16.67° C | 57% | 1013.6 hPa | - | - | - | - |
| 1777919552 | 17.22° C | 56% | 1013.7 hPa | - | - | - | - |
| 1777918646 | 17.78° C | 54% | 1013.8 hPa | - | - | - | - |
| 1777917741 | 18.33° C | 53% | 1013.7 hPa | - | - | - | - |
| 1777916836 | 18.33° C | 52% | 1013.7 hPa | - | - | - | - |
| 1777915931 | 18.89° C | 51% | 1013.8 hPa | - | - | - | - |
| 1777915025 | 20° C | 50% | 1013.7 hPa | - | - | - | - |
| 1777914120 | 20° C | 49% | 1013.7 hPa | - | - | - | - |
| 1777913214 | 20.56° C | 48% | 1013.6 hPa | - | - | - | - |
| 1777912308 | 20.56° C | 47% | 1013.5 hPa | - | - | - | - |
| 1777911404 | 21.11° C | 43% | 1013.6 hPa | - | - | - | - |
| 1777910498 | 21.11° C | 37% | 1013.6 hPa | - | - | - | - |
| 1777909592 | 21.67° C | 35% | 1013.3 hPa | - | - | - | - |
| 1777908687 | 22.78° C | 36% | 1013.3 hPa | - | - | - | - |
| 1777907782 | 23.33° C | 34% | 1013.2 hPa | - | - | - | - |
| 1777906876 | 23.33° C | 33% | 1013.1 hPa | - | - | - | - |
| 1777905971 | 23.89° C | 32% | 1013.1 hPa | - | - | - | - |
| 1777905065 | 23.89° C | 32% | 1013 hPa | - | - | - | - |
| 1777904160 | 25° C | 31% | 1013.1 hPa | - | - | - | - |
| 1777903255 | 25° C | 30% | 1013.3 hPa | - | - | - | - |
| 1777902349 | 25.56° C | 30% | 1013.4 hPa | - | - | - | - |
| 1777901444 | 26.11° C | 30% | 1013.5 hPa | - | - | - | - |
| 1777900538 | 25.56° C | 30% | 1013.5 hPa | - | - | - | - |
| 1777899633 | 24.44° C | 31% | 1013.6 hPa | - | - | - | - |
* Rain since midnight (hover to see other rain measurements)
** Current wind speed in m/s (hover to see current wind gust speed)